This is the latest recevied weather packets stored in our database for station/object OE6ACM-14. If no packets are shown the sender has not sent any weather packets the latest 10 day(s).
| Time | Temp. | Humidity | Pressure | Rain* | Wind** | Luminosity | Snow |
|---|---|---|---|---|---|---|---|
| 1787835440 | 33.33° C | 36% | 927.8 hPa | - | - | - | - |
| 1787835140 | 32.78° C | 36% | 927.8 hPa | - | - | - | - |
| 1787834840 | 32.78° C | 37% | 927.9 hPa | - | - | - | - |
| 1787834540 | 32.78° C | 37% | 928 hPa | - | - | - | - |
| 1787834240 | 32.78° C | 35% | 928 hPa | - | - | - | - |
| 1787833940 | 33.33° C | 35% | 928.1 hPa | - | - | - | - |
| 1787833640 | 33.33° C | 34% | 928.1 hPa | - | - | - | - |
| 1787833340 | 33.33° C | 33% | 928.1 hPa | - | - | - | - |
| 1787833040 | 33.33° C | 33% | 928.1 hPa | - | - | - | - |
| 1787832740 | 33.33° C | 33% | 928.1 hPa | - | - | - | - |
| 1787832440 | 33.33° C | 33% | 928.2 hPa | - | - | - | - |
| 1787832140 | 32.78° C | 33% | 928.3 hPa | - | - | - | - |
| 1787831840 | 32.22° C | 33% | 928.3 hPa | - | - | - | - |
| 1787831540 | 32.78° C | 34% | 928.4 hPa | - | - | - | - |
| 1787831240 | 32.22° C | 37% | 928.4 hPa | - | - | - | - |
| 1787830940 | 31.67° C | 36% | 928.5 hPa | - | - | - | - |
| 1787830640 | 32.22° C | 37% | 928.5 hPa | - | - | - | - |
| 1787830340 | 32.22° C | 37% | 928.4 hPa | - | - | - | - |
| 1787830040 | 31.67° C | 38% | 928.5 hPa | - | - | - | - |
| 1787829740 | 30° C | 40% | 928.7 hPa | - | - | - | - |
| 1787829440 | 31.11° C | 36% | 928.7 hPa | - | - | - | - |
| 1787829140 | 31.67° C | 38% | 928.7 hPa | - | - | - | - |
| 1787828840 | 30.56° C | 39% | 928.7 hPa | - | - | - | - |
| 1787828540 | 30.56° C | 38% | 928.7 hPa | - | - | - | - |
| 1787828240 | 30.56° C | 35% | 928.6 hPa | - | - | - | - |
* Rain since midnight (hover to see other rain measurements)
** Current wind speed in m/s (hover to see current wind gust speed)